Theta_e
284 284 284 284 283 283 283 283 283 283 283 283 283 283 283 283 282 283 283 282 283 283
283 283 283 283 283 283 283 283 282 282 281 282 282 282 282 281 281 281 281 281 282 282
282 282 282 282 282 282 282 281 281 281 281 280 281 280 280 280 280 279 280 280 280 280
282 281 281 281 281 281 281 280 280 280 280 279 279 279 279 279 279 278 279 279 279 279
281 281 281 280 280 280 279 279 278 278 278 278 278 278 277 277 277 277 277 278 278 278
280 280 279 279 279 278 277 277 277 276 275 275 275 275 275 275 275 276 276 276 276 277
279 278 277 277 277 276 275 274 274 274 273 273 273 273 273 274 274 274 274 274 274 274
277 276 276 274 274 273 273 273 272 272 272 272 271 272 273 273 273 273 273 273 273 274
275 274 273 272 272 271 271 270 270 270 269 269 270 272 274 274 273 272 271 271 272 272
272 271 270 270 270 269 268 268 268 268 268 267 267 271 273 274 272 271 270 270 270 270
270 268 268 268 267 267 267 266 266 266 266 266 267 271 272 272 271 270 269 269 269 269
267 266 266 264 265 265 265 264 264 265 265 264 264 268 271 271 269 269 268 269 269 269
267 263 262 263 263 264 262 263 264 264 264 263 262 267 269 270 269 268 268 269 270 272
264 262 261 261 262 261 260 262 260 261 262 262 262 263 268 271 270 269 269 270 270 271
Wind_Speed
9 6 6 7 6 6 5 5 6 7 6 7 7 7 6 5 5 6 6 7 7 6
7 8 7 7 5 4 3 5 4 4 5 5 5 5 6 5 6 6 6 7 8 7
6 6 6 5 5 4 4 5 5 6 7 7 6 6 7 6 7 7 7 7 10 10
4 4 4 5 5 6 6 7 8 9 10 10 11 11 10 10 11 12 12 11 11 12
4 4 6 6 7 8 9 9 9 9 10 10 10 11 11 12 12 13 14 14 14 15
5 5 6 6 6 6 7 8 8 8 9 10 11 11 11 12 13 13 14 14 15 15
5 5 4 4 4 4 5 6 7 8 9 10 11 12 12 12 14 15 15 16 16 16
5 4 4 3 3 4 5 6 7 9 9 9 9 9 13 14 15 16 16 16 16 15
5 3 3 3 4 5 5 6 7 8 9 10 8 17 20 18 14 16 16 15 16 16
4 2 2 3 3 5 6 7 8 9 9 11 12 18 21 22 14 15 15 16 15 15
3 2 3 3 5 6 6 7 8 9 10 11 11 21 22 23 16 14 16 16 16 17
3 2 3 3 5 5 6 7 8 8 9 11 12 21 23 20 13 13 15 15 15 16
3 3 1 3 5 3 6 8 8 10 10 12 13 20 22 19 10 12 11 13 14 21
3 0 2 2 3 4 6 7 7 10 9 11 13 14 21 22 12 11 11 10 10 11
Wind_Direction
104 100 91 86 79 66 59 49 32 31 26 21 13 10 9 4 355 346 333 325 320 310
100 97 99 91 84 70 61 38 28 22 12 3 3 358 348 338 325 319 309 305 300 292
112 107 109 103 88 75 57 30 22 14 7 0 356 352 348 334 324 310 311 301 297 294
123 111 110 85 63 42 37 21 13 3 354 353 348 346 338 330 322 317 309 306 302 299
126 82 60 45 33 24 15 10 1 356 350 345 339 333 326 319 314 308 305 304 302 296
79 70 54 42 27 19 3 352 353 349 343 337 332 326 320 311 308 305 303 302 300 298
95 83 71 58 39 6 349 348 347 343 334 330 325 318 310 310 307 302 298 297 294 294
111 97 86 61 19 356 357 354 340 330 323 319 313 309 313 308 301 300 297 295 297 295
113 95 62 37 3 351 344 334 326 322 317 315 309 309 308 306 300 300 297 295 296 296
114 114 87 24 358 345 336 331 325 317 314 309 306 307 309 308 301 298 296 296 297 296
128 85 41 12 348 331 325 319 314 312 309 305 304 309 310 307 302 300 294 291 290 289
121 92 33 349 323 314 310 311 307 305 307 300 298 307 307 310 301 292 289 287 282 276
140 117 357 309 308 306 305 306 310 305 301 293 291 298 305 308 293 289 288 280 278 276
114 79 286 304 314 301 299 299 296 295 291 283 279 284 301 303 296 290 284 283 286 282